Wind_Speed
10 9 8 8 8 8 7 6 6 6 6 6 6 6 5 5 4 4 4 3 3 4 4 3 3 3 3 3 3 3 4 4 3 2 2 2 2 2 2 3 3 3 3
10 9 8 8 7 7 7 6 6 5 5 5 5 5 5 5 5 4 3 3 3 3 3 3 3 3 3 3 3 3 3 3 3 3 2 2 2 2 3 4 4 4 5
9 9 8 7 6 6 6 7 6 5 5 5 6 6 5 6 5 4 3 2 2 2 3 2 2 2 2 3 3 3 3 3 3 3 2 2 2 3 3 4 5 5 6
8 8 7 7 7 7 7 7 7 6 6 6 6 7 6 5 5 4 3 2 2 2 2 2 2 2 2 3 3 3 3 4 4 3 3 3 3 3 4 5 5 5 6
8 7 7 7 7 7 7 7 8 7 6 7 7 6 5 5 5 4 3 2 2 2 2 2 1 2 2 3 3 4 4 4 4 4 4 4 4 4 5 5 5 6 7
7 7 7 7 7 6 7 7 8 7 7 8 7 6 6 5 5 4 3 3 3 2 2 2 2 3 3 3 4 5 5 5 5 6 6 6 6 6 6 6 6 7 7
7 7 7 7 6 7 7 8 8 8 8 7 6 7 7 6 6 5 4 4 4 3 3 3 4 4 4 4 5 5 6 6 6 7 7 7 8 8 8 8 8 8 8
8 8 8 8 7 8 8 8 7 7 7 6 6 6 6 6 6 5 5 5 5 4 4 4 5 5 5 6 6 6 7 7 7 7 8 8 8 8 9 9 9 9 10
9 9 9 9 9 9 8 8 7 7 7 6 6 7 6 6 7 6 6 6 6 6 6 6 6 6 6 7 7 7 7 7 7 7 8 8 8 9 9 9 10 10 11
9 9 9 9 9 8 8 7 7 7 7 7 7 7 7 7 7 7 7 7 7 7 7 7 7 7 7 7 7 7 7 7 8 8 8 9 9 9 10 10 11 11 12
8 8 8 9 8 8 8 7 7 8 7 7 7 7 8 8 9 9 8 8 8 8 8 8 8 7 7 8 8 8 8 9 9 9 9 9 10 10 11 12 12 13 13
8 8 8 9 8 8 8 8 8 8 8 8 8 9 9 9 9 9 9 9 9 8 8 8 8 8 8 9 9 9 9 10 10 10 10 10 11 12 12 13 14 14 14
8 8 8 9 9 9 9 8 8 8 8 8 8 8 8 9 9 9 9 9 9 9 9 8 8 9 10 10 11 11 11 11 11 11 12 12 12 13 14 14 15 15 16
9 9 9 9 9 9 10 9 9 9 9 8 8 9 9 9 9 9 9 9 10 10 10 11 11 11 11 12 12 12 13 13 13 13 13 14 14 15 15 16 16 17 18
9 9 9 9 10 9 9 9 10 9 9 9 9 9 9 9 9 10 10 10 10 11 12 12 13 13 13 13 13 13 13 13 14 14 15 15 16 16 16 17 18 18 19
10 9 9 10 10 10 10 10 10 10 10 10 10 10 10 10 10 10 11 11 12 12 13 13 12 12 13 13 14 14 14 14 15 15 15 16 16 17 17 18 19 19 20
10 10 10 10 10 10 10 10 10 10 10 10 11 11 11 11 10 11 12 12 12 13 13 13 12 12 13 14 14 14 15 15 15 15 16 16 17 17 18 19 20 21 22
11 11 10 11 11 10 10 10 10 10 10 10 11 11 11 11 11 12 13 12 13 13 14 13 13 13 14 14 15 15 15 15 16 17 18 18 18 19 20 20 22 23 24
12 12 12 12 12 11 11 10 10 10 10 11 11 11 12 12 13 13 13 13 13 14 14 14 14 14 15 15 16 16 16 17 17 18 19 19 20 21 22 23 24 24 25
13 13 13 13 12 13 12 11 11 11 11 11 11 11 12 12 13 14 14 14 14 14 14 14 14 15 15 16 16 17 17 18 19 19 20 21 22 23 23 24 24 25 26
13 13 13 13 13 13 13 13 12 12 12 12 12 12 12 12 13 14 14 15 15 15 15 14 15 15 15 16 17 17 18 19 20 20 21 22 23 24 24 25 26 27 28
14 14 14 13 13 13 13 13 13 13 14 14 13 13 14 14 14 14 14 14 15 15 15 15 15 15 16 17 17 18 19 20 20 21 22 22 24 25 26 27 28 28 29
16 15 14 14 14 14 14 14 14 15 15 15 15 15 16 15 15 15 15 15 15 15 15 16 16 16 17 18 18 19 20 20 21 22 23 24 25 26 27 28 28 29 30
17 17 16 16 15 15 15 15 16 16 16 16 16 17 16 16 16 16 16 16 16 16 16 16 17 17 18 18 19 20 21 22 22 23 24 25 26 27 28 28 29 30 31
18 17 17 17 17 17 17 17 17 17 17 17 17 17 17 17 17 17 17 17 17 17 17 18 18 18 19 20 21 22 22 23 24 25 25 26 27 28 28 29 29 30 31
19 19 18 18 18 18 18 18 18 19 18 18 18 18 18 18 18 18 18 18 18 18 18 19 20 20 21 22 22 23 24 25 26 26 27 28 29 30 30 30 31 31 33
Wind_Direction
264 263 264 266 269 272 270 269 266 260 260 262 261 260 247 251 257 273 283 301 319 329 337 345 353 357 3 10 15 10 10 17 14 359 351 334 288 265 271 276 283 286 282
263 261 268 270 272 267 265 270 272 262 260 261 261 265 248 248 256 266 275 301 320 331 343 348 353 360 8 12 6 1 10 16 12 3 3 6 336 298 282 278 281 283 282
259 261 264 266 264 267 266 265 265 265 264 264 264 269 253 250 246 256 257 281 309 333 348 348 358 4 2 360 354 357 358 4 7 1 357 335 312 305 301 295 286 285 277
260 258 259 261 258 263 268 270 268 269 264 263 263 260 249 242 239 241 247 264 292 324 346 354 350 350 353 352 353 357 354 352 354 350 342 331 320 310 304 302 297 290 285
265 262 259 258 259 268 268 271 274 271 265 262 263 250 244 242 232 229 239 251 274 304 327 335 331 331 328 332 334 335 338 333 328 328 327 324 321 315 308 303 299 297 293
265 260 258 258 262 268 269 271 273 266 264 262 251 241 240 240 229 226 235 251 263 277 292 303 308 313 315 318 323 321 321 320 315 313 310 310 310 309 306 304 299 295 294
265 264 266 269 268 270 271 269 271 264 262 260 250 240 238 238 233 233 239 251 260 272 284 287 287 299 309 309 313 316 313 312 310 307 305 305 305 304 303 301 300 297 293
272 267 268 274 271 270 271 271 268 261 256 251 254 240 236 236 238 242 243 247 258 270 282 287 290 295 302 304 304 309 309 308 308 306 306 305 304 301 299 298 297 297 295
271 269 269 268 267 266 267 264 258 252 246 248 252 244 234 239 242 243 247 253 261 266 275 282 285 294 298 301 304 307 306 305 306 306 308 308 306 302 300 298 297 297 296
273 266 263 263 259 258 261 256 251 248 253 256 257 246 238 242 242 248 250 256 262 267 270 274 278 287 294 300 301 304 307 306 305 305 304 304 303 302 300 299 298 297 297
277 269 261 258 253 255 257 251 249 251 254 255 255 251 243 241 243 248 250 256 263 265 270 276 279 283 288 292 298 299 301 302 302 303 303 300 299 299 299 299 298 297 297
279 272 264 259 256 257 254 246 248 252 254 256 254 252 246 245 248 250 255 259 263 271 275 280 281 281 284 287 292 296 297 299 299 300 300 300 298 298 298 298 298 298 299
278 274 267 264 260 260 256 251 252 255 256 257 254 249 250 250 254 255 257 259 264 273 278 280 285 284 283 284 289 293 295 296 297 299 299 300 300 299 298 297 298 298 298
276 273 266 264 261 262 261 256 256 257 256 253 254 252 250 251 254 256 256 261 265 272 278 281 283 286 288 286 288 291 290 293 293 295 297 299 300 299 299 299 299 299 299
272 270 266 265 264 264 262 260 258 258 254 252 255 257 253 252 256 257 262 264 268 275 279 283 284 287 289 288 289 290 290 293 295 296 298 300 301 300 299 299 299 299 299
278 273 272 268 264 263 262 263 259 260 259 256 254 255 255 256 258 262 268 272 274 278 281 285 287 289 290 290 290 290 291 293 295 296 299 301 302 302 301 300 300 301 301
278 275 274 269 264 264 266 263 262 261 258 255 251 254 257 261 262 265 269 274 278 279 282 283 284 287 288 290 291 291 292 294 295 297 299 301 302 302 302 302 302 303 303
276 272 272 271 267 266 266 264 263 262 260 253 253 256 261 263 264 268 271 274 277 279 281 280 283 286 288 291 292 292 292 293 295 297 298 299 300 302 304 303 303 304 305
274 273 269 269 270 269 266 265 263 265 264 262 260 259 262 265 267 268 271 273 276 280 280 280 281 284 288 291 292 291 292 295 297 298 298 300 301 302 303 304 304 305 305
272 274 274 271 270 269 267 264 264 266 266 264 263 262 263 266 267 269 271 275 277 279 281 282 282 283 287 290 291 292 293 295 296 298 299 300 301 302 304 305 306 306 306
269 272 275 274 269 266 266 264 264 264 263 264 263 263 265 268 271 273 274 275 277 280 283 284 284 286 289 290 292 293 295 296 297 298 299 300 301 303 304 305 306 306 306
268 269 272 272 269 266 264 264 263 263 263 263 263 264 265 269 273 276 277 277 279 281 282 284 285 287 289 291 293 295 297 299 300 300 301 302 303 304 304 304 305 305 305
270 271 271 269 268 265 262 263 263 262 263 262 263 264 267 269 271 274 276 278 282 283 283 284 287 288 289 291 294 296 298 300 301 302 302 303 304 304 304 305 306 306 306
269 271 272 269 268 266 263 264 264 263 263 264 265 268 268 269 270 273 276 279 281 283 284 286 289 291 291 293 295 297 297 298 300 302 304 305 305 305 306 307 307 307 307
267 269 271 269 266 265 264 264 264 265 265 266 267 268 269 269 271 272 274 277 278 280 283 285 287 289 291 293 295 297 298 298 299 301 303 304 305 306 306 307 307 308 309
265 267 269 270 268 265 264 265 265 265 266 267 268 269 270 269 270 272 273 275 276 278 281 284 286 287 289 291 294 296 298 299 300 301 302 303 304 306 306 306 307 308 308
Height
5854 5854 5855 5856 5856 5857 5857 5858 5858 5858 5859 5860 5861 5862 5862 5863 5864 5864 5864 5864 5864 5863 5863 5862 5862 5861 5861 5861 5861 5861 5860 5860 5860 5860 5860 5860 5861 5861 5862 5862 5863 5863 5863
5852 5853 5854 5855 5855 5855 5856 5856 5857 5857 5858 5859 5860 5860 5861 5862 5863 5863 5863 5864 5863 5863 5863 5862 5862 5861 5861 5861 5861 5861 5860 5860 5860 5860 5860 5861 5861 5861 5861 5861 5862 5862 5862
5851 5851 5852 5853 5854 5854 5854 5855 5856 5856 5857 5858 5859 5859 5860 5861 5861 5862 5863 5863 5863 5863 5862 5862 5862 5861 5861 5861 5861 5861 5861 5860 5860 5860 5860 5860 5861 5860 5861 5860 5860 5861 5861
5849 5850 5851 5851 5852 5853 5853 5854 5854 5855 5856 5856 5857 5858 5859 5859 5861 5861 5862 5862 5862 5862 5862 5862 5862 5861 5861 5861 5861 5861 5861 5860 5860 5860 5860 5860 5860 5860 5860 5860 5860 5860 5860
5848 5848 5849 5850 5850 5851 5851 5852 5853 5854 5854 5855 5856 5857 5858 5859 5860 5860 5861 5862 5862 5862 5862 5862 5862 5861 5861 5861 5861 5860 5860 5860 5860 5860 5860 5860 5859 5859 5859 5859 5859 5859 5859
5847 5847 5848 5848 5849 5849 5850 5851 5851 5852 5853 5854 5854 5856 5857 5858 5859 5860 5861 5861 5862 5862 5862 5861 5861 5861 5861 5860 5860 5860 5860 5859 5859 5859 5859 5859 5859 5858 5858 5858 5858 5858 5858
5845 5846 5846 5847 5847 5848 5849 5849 5850 5851 5851 5852 5853 5854 5856 5857 5858 5859 5859 5860 5861 5861 5861 5861 5861 5860 5860 5860 5859 5859 5859 5859 5858 5858 5858 5858 5858 5857 5857 5857 5856 5856 5856
5844 5844 5845 5845 5846 5846 5847 5848 5848 5849 5850 5851 5852 5853 5854 5856 5856 5857 5858 5859 5860 5860 5860 5860 5860 5859 5859 5859 5858 5858 5858 5857 5857 5857 5856 5856 5856 5855 5855 5855 5855 5854 5854
5842 5842 5843 5843 5844 5844 5845 5846 5847 5848 5849 5850 5851 5852 5853 5854 5855 5856 5857 5858 5858 5858 5859 5859 5859 5858 5858 5858 5857 5857 5856 5856 5856 5855 5855 5854 5854 5853 5853 5853 5853 5853 5852
5840 5840 5841 5841 5842 5842 5843 5844 5845 5846 5847 5848 5849 5850 5851 5852 5854 5855 5855 5856 5856 5857 5857 5857 5857 5857 5857 5856 5856 5855 5855 5855 5854 5853 5853 5852 5852 5851 5851 5850 5850 5850 5849
5838 5838 5838 5839 5840 5841 5842 5842 5843 5844 5845 5846 5847 5848 5850 5851 5852 5853 5854 5854 5854 5855 5855 5855 5855 5855 5855 5855 5854 5854 5853 5853 5852 5852 5851 5850 5850 5849 5849 5848 5847 5846 5846
5836 5836 5837 5837 5838 5839 5840 5841 5842 5843 5843 5844 5845 5846 5847 5849 5850 5850 5851 5852 5852 5853 5853 5853 5853 5853 5853 5853 5852 5852 5851 5851 5850 5849 5849 5848 5847 5847 5846 5845 5844 5843 5842
5834 5835 5835 5836 5836 5837 5838 5839 5840 5841 5842 5842 5843 5844 5845 5846 5847 5848 5849 5849 5850 5850 5851 5851 5851 5851 5850 5850 5850 5849 5849 5848 5847 5847 5846 5845 5844 5843 5843 5842 5840 5839 5838
5832 5833 5833 5834 5834 5835 5836 5837 5837 5838 5839 5840 5841 5842 5843 5844 5845 5846 5846 5847 5847 5848 5848 5848 5848 5848 5847 5847 5847 5846 5846 5845 5844 5844 5843 5842 5841 5840 5839 5838 5837 5835 5834
5831 5831 5831 5832 5832 5833 5834 5834 5835 5836 5837 5838 5839 5840 5841 5842 5842 5843 5843 5844 5845 5845 5845 5845 5845 5845 5844 5844 5843 5843 5842 5842 5841 5840 5839 5838 5837 5836 5835 5834 5832 5831 5830
5829 5829 5829 5829 5830 5831 5831 5832 5833 5833 5834 5835 5836 5837 5838 5839 5840 5840 5841 5841 5842 5842 5842 5842 5841 5841 5841 5840 5840 5839 5839 5838 5838 5837 5836 5835 5833 5832 5831 5829 5828 5826 5824
5827 5827 5827 5827 5827 5828 5829 5830 5830 5831 5831 5832 5833 5834 5835 5836 5837 5837 5838 5838 5838 5838 5838 5838 5838 5838 5837 5837 5836 5836 5835 5835 5834 5833 5832 5831 5829 5828 5826 5824 5823 5821 5819
5824 5824 5825 5825 5825 5826 5826 5827 5827 5828 5829 5830 5831 5832 5832 5833 5834 5834 5834 5835 5835 5835 5835 5834 5834 5834 5834 5833 5832 5832 5831 5831 5830 5829 5828 5826 5825 5823 5821 5820 5818 5816 5813
5822 5822 5822 5822 5822 5823 5824 5824 5825 5825 5826 5827 5827 5828 5829 5830 5830 5831 5831 5831 5831 5831 5831 5830 5830 5830 5830 5829 5828 5828 5827 5826 5825 5824 5823 5821 5820 5818 5816 5814 5812 5810 5807
5819 5819 5819 5819 5820 5820 5820 5821 5822 5822 5823 5824 5824 5825 5826 5826 5827 5827 5827 5827 5827 5827 5827 5826 5826 5826 5826 5825 5824 5823 5823 5822 5821 5819 5818 5816 5814 5812 5810 5808 5806 5803 5801
5815 5815 5816 5816 5816 5817 5817 5818 5818 5819 5820 5820 5821 5822 5822 5823 5823 5823 5823 5823 5823 5823 5823 5822 5822 5822 5821 5821 5820 5819 5818 5817 5816 5814 5812 5811 5808 5806 5804 5802 5799 5797 5794
5811 5812 5812 5812 5812 5813 5813 5814 5815 5815 5816 5817 5817 5818 5818 5819 5819 5819 5819 5819 5819 5819 5819 5818 5818 5818 5817 5816 5815 5814 5813 5812 5810 5809 5807 5805 5802 5800 5797 5795 5792 5789 5786
5807 5807 5808 5808 5808 5809 5809 5810 5811 5811 5812 5812 5813 5814 5814 5815 5815 5815 5815 5815 5815 5815 5815 5814 5814 5813 5812 5812 5810 5809 5808 5806 5805 5803 5801 5798 5796 5793 5791 5788 5785 5782 5779
5802 5803 5803 5803 5804 5804 5805 5806 5806 5806 5807 5808 5809 5809 5810 5810 5811 5811 5811 5811 5810 5810 5810 5809 5809 5808 5808 5807 5805 5804 5802 5801 5799 5797 5794 5792 5789 5787 5784 5781 5778 5774 5771
5797 5797 5798 5799 5799 5799 5800 5801 5801 5802 5802 5803 5804 5804 5805 5805 5805 5806 5806 5806 5806 5805 5805 5805 5804 5803 5803 5801 5800 5798 5797 5795 5793 5790 5788 5785 5783 5780 5777 5774 5770 5767 5763
5791 5792 5793 5793 5794 5794 5795 5796 5796 5797 5798 5798 5798 5799 5799 5800 5800 5800 5800 5800 5800 5800 5799 5799 5798 5797 5797 5795 5794 5792 5790 5788 5786 5784 5781 5778 5775 5773 5769 5766 5763 5759 5755